TimeCDT,TemperatureF,Dew PointF,Humidity,Sea Level PressureIn,VisibilityMPH,Wind Direction,Wind SpeedMPH,Gust SpeedMPH,PrecipitationIn,Events,Conditions,WindDirDegrees,DateUTC
12:26 AM,50.0,48.2,94,29.74,7.0,North,10.4,-,N/A,,Overcast,10,2012-10-14 05:26:00
12:53 AM,50.0,48.0,93,29.74,7.0,NNE,6.9,-,N/A,,Overcast,20,2012-10-14 05:53:00
1:53 AM,48.9,46.9,93,29.73,8.0,NNE,12.7,-,N/A,,Overcast,20,2012-10-14 06:53:00
2:14 AM,48.2,46.4,93,29.74,9.0,NNE,8.1,-,N/A,,Overcast,20,2012-10-14 07:14:00
2:31 AM,48.2,46.4,93,29.75,9.0,NNE,5.8,-,N/A,,Overcast,20,2012-10-14 07:31:00
2:53 AM,48.9,46.0,90,29.75,9.0,NNE,5.8,-,N/A,,Overcast,20,2012-10-14 07:53:00
3:53 AM,48.0,46.0,93,29.76,9.0,North,9.2,-,N/A,,Overcast,360,2012-10-14 08:53:00
4:53 AM,48.0,45.0,89,29.74,10.0,North,5.8,-,N/A,,Overcast,360,2012-10-14 09:53:00
5:19 AM,48.2,44.6,87,29.73,10.0,North,8.1,-,N/A,,Mostly Cloudy,350,2012-10-14 10:19:00
5:53 AM,46.9,44.1,90,29.75,9.0,NNW,9.2,-,N/A,,Mostly Cloudy,340,2012-10-14 10:53:00
6:21 AM,46.4,44.6,93,29.73,8.0,North,12.7,-,N/A,,Overcast,360,2012-10-14 11:21:00
6:53 AM,46.9,44.1,90,29.73,9.0,North,11.5,-,N/A,,Overcast,360,2012-10-14 11:53:00
7:10 AM,46.4,44.6,93,29.73,9.0,North,12.7,-,N/A,,Overcast,360,2012-10-14 12:10:00
7:33 AM,46.4,44.6,93,29.74,9.0,NNW,11.5,-,N/A,,Overcast,340,2012-10-14 12:33:00
7:53 AM,46.0,43.0,89,29.76,8.0,North,13.8,-,N/A,,Overcast,350,2012-10-14 12:53:00
8:53 AM,45.0,43.0,93,29.78,7.0,North,10.4,-,N/A,,Overcast,360,2012-10-14 13:53:00
9:53 AM,45.0,42.1,90,29.78,7.0,NNW,13.8,-,N/A,,Overcast,340,2012-10-14 14:53:00
10:53 AM,46.0,41.0,83,29.78,7.0,NNW,15.0,-,N/A,,Overcast,340,2012-10-14 15:53:00
11:12 AM,46.4,41.0,81,29.77,7.0,North,16.1,-,N/A,,Overcast,350,2012-10-14 16:12:00
11:53 AM,48.9,41.0,74,29.78,7.0,North,11.5,-,N/A,,Overcast,350,2012-10-14 16:53:00
12:09 PM,48.2,39.2,71,29.77,6.0,NNW,18.4,21.9,N/A,,Haze,340,2012-10-14 17:09:00
12:53 PM,53.1,39.9,61,29.77,8.0,North,18.4,25.3,N/A,,Mostly Cloudy,350,2012-10-14 17:53:00
1:53 PM,55.9,36.0,47,29.77,10.0,NNW,16.1,24.2,N/A,,Scattered Clouds,340,2012-10-14 18:53:00
2:53 PM,57.9,33.1,39,29.76,10.0,North,16.1,26.5,N/A,,Partly Cloudy,350,2012-10-14 19:53:00
3:53 PM,59.0,30.0,33,29.78,9.0,NNW,11.5,23.0,N/A,,Partly Cloudy,340,2012-10-14 20:53:00
4:53 PM,59.0,30.0,33,29.79,10.0,NW,15.0,19.6,N/A,,Partly Cloudy,320,2012-10-14 21:53:00
5:53 PM,55.9,32.0,40,29.83,10.0,NW,16.1,23.0,N/A,,Partly Cloudy,310,2012-10-14 22:53:00
6:53 PM,54.0,33.1,45,29.84,10.0,NW,6.9,-,N/A,,Mostly Cloudy,320,2012-10-14 23:53:00
7:53 PM,53.1,33.1,47,29.85,10.0,WNW,5.8,-,N/A,,Mostly Cloudy,300,2012-10-15 00:53:00
8:53 PM,53.1,35.1,50,29.86,10.0,WNW,5.8,-,N/A,,Overcast,290,2012-10-15 01:53:00
9:53 PM,53.1,36.0,52,29.87,10.0,NNW,6.9,-,N/A,,Partly Cloudy,330,2012-10-15 02:53:00
10:53 PM,48.9,37.0,64,29.88,10.0,WNW,5.8,-,N/A,,Mostly Cloudy,300,2012-10-15 03:53:00
11:53 PM,48.0,36.0,63,29.89,10.0,WNW,6.9,-,N/A,,Partly Cloudy,300,2012-10-15 04:53:00